Kennedy Space Center, FL

11:49 PM EDT on September 29, 2016 (GMT -0400)
Nasa Shuttle

Weather History for KTTS - January, 2013

Change the Weather History Date:

Monday, January 21, 2013

  Actual Average Record
Temperature  
Mean Temperature 64 °F -  
Max Temperature 70 °F 68 °F 84 °F (2002)
Min Temperature 59 °F 48 °F 30 °F (2009)
Growing Degree Days 14 (Base 50)    
Moisture  
Dew Point 60 °F    
Average Humidity 85    
Maximum Humidity 99    
Minimum Humidity 71    
Precipitation  
Precipitation 0.00 in - - ()
Sea Level Pressure  
Sea Level Pressure 30.06 in    
Wind  
Wind Speed 5 mph (North)    
Max Wind Speed 14 mph    
Max Gust Speed 18 mph    
Visibility 10 miles    
Events Rain    
Averages and records for this station are not official NWS values.
T = Trace of Precipitation, MM = Missing Value Source: NWS Daily Summary

Daily Weather History Graph

Daily Weather History Graph

Search for Another Location

Airport or City:

Trip Planner

Search our weather history database for the weather conditions in past years. The results will help you decide how hot, cold, wet, or windy it might be!

Date:

Astronomy

Jan. 21, 2013 Rise Set
Actual Time 7:15 AM EST 5:53 PM EST
Civil Twilight 6:50 AM EST 6:18 PM EST
Nautical Twilight 6:21 AM EST 6:47 PM EST
Astronomical Twilight 5:53 AM EST 7:15 PM EST
Moon 1:33 PM EST (1/21) 2:41 AM EST (1/21)
Length of Visible Light 11h 28m
Length of Day
10h 38m
Waxing Gibbous, 75% of the Moon is Illuminated
Jan 21
Waxing Gibbous
Jan 26
Full
Feb 3
Last Quarter
Feb 10
New
Feb 17
First Quarter

Hourly Weather History & Observations

Time (EST) Temp. Dew Point Humidity Pressure Visibility Wind Dir Wind Speed Gust Speed Precip Events Conditions
12:07 AM 62.6 °F 60.8 °F 94% 30.10 in 10.0 mi North 3.5 mph - N/A   Overcast
12:55 AM 63.1 °F 61.7 °F 95% 30.09 in 10.0 mi NNW 3.5 mph - N/A   Overcast
1:55 AM 62.6 °F 61.9 °F 97% 30.09 in 10.0 mi Calm Calm - N/A   Overcast
2:55 AM 62.6 °F 62.2 °F 99% 30.07 in 10.0 mi Calm Calm - N/A   Overcast
3:55 AM 63.1 °F 63.0 °F 99% 30.07 in 10.0 mi Calm Calm - N/A   Overcast
4:55 AM 63.5 °F 63.1 °F 99% 30.04 in 10.0 mi ENE 4.6 mph - N/A   Overcast
5:55 AM 62.6 °F 62.2 °F 99% 30.05 in 10.0 mi Calm Calm - N/A   Overcast
6:55 AM 62.2 °F 62.1 °F 99% 30.06 in 10.0 mi Calm Calm - N/A   Overcast
7:55 AM 62.4 °F 62.1 °F 99% 30.07 in 10.0 mi NNW 3.5 mph - N/A   Mostly Cloudy
8:55 AM 65.7 °F 64.2 °F 95% 30.10 in 10.0 mi North 5.8 mph - N/A   Mostly Cloudy
9:55 AM 68.7 °F 61.3 °F 77% 30.10 in 10.0 mi North 5.8 mph - N/A   Mostly Cloudy
10:55 AM 70.0 °F 61.0 °F 73% 30.11 in 10.0 mi North 9.2 mph - N/A   Overcast
11:55 AM 69.8 °F 61.2 °F 74% 30.09 in 10.0 mi NNE 9.2 mph - N/A   Mostly Cloudy
12:26 PM 68.0 °F 60.8 °F 78% 30.08 in 10.0 mi North 10.4 mph - N/A Rain Light Rain
12:41 PM 68.0 °F 60.8 °F 78% 30.07 in 10.0 mi North 12.7 mph - N/A   Mostly Cloudy
12:55 PM 69.8 °F 60.6 °F 73% 30.06 in 10.0 mi North 12.7 mph 18.4 mph 0.00 in   Mostly Cloudy
1:13 PM 68.0 °F 60.8 °F 78% 30.06 in 10.0 mi North 12.7 mph - N/A   Overcast
1:19 PM 68.0 °F 60.8 °F 78% 30.05 in 10.0 mi North 10.4 mph - N/A   Mostly Cloudy
1:21 PM 69.8 °F 60.8 °F 73% 30.05 in 10.0 mi North 9.2 mph - N/A   Mostly Cloudy
1:29 PM 69.8 °F 60.8 °F 73% 30.05 in 10.0 mi North 10.4 mph - N/A   Mostly Cloudy
1:55 PM 69.3 °F 59.9 °F 72% 30.04 in 10.0 mi North 12.7 mph - N/A   Mostly Cloudy
2:55 PM 68.4 °F 58.5 °F 71% 30.02 in 10.0 mi North 13.8 mph - N/A   Scattered Clouds
3:55 PM 66.6 °F 58.1 °F 74% 30.03 in 10.0 mi North 10.4 mph - N/A   Overcast
4:55 PM 65.8 °F 57.9 °F 76% 30.04 in 10.0 mi NNE 8.1 mph - N/A   Overcast
5:55 PM 65.7 °F 57.6 °F 75% 30.04 in 10.0 mi NNE 8.1 mph - N/A   Overcast
6:55 PM 63.9 °F 57.9 °F 81% 30.04 in 10.0 mi NNE 4.6 mph - N/A   Scattered Clouds
7:55 PM 62.6 °F 58.1 °F 85% 30.05 in 10.0 mi North 3.5 mph - N/A   Partly Cloudy
8:55 PM 59.9 °F 57.7 °F 93% 30.05 in 10.0 mi North 4.6 mph - N/A   Clear
9:55 PM 60.1 °F 58.5 °F 94% 30.07 in 10.0 mi North 4.6 mph - N/A   Clear
10:55 PM 60.6 °F 58.1 °F 91% 30.08 in 10.0 mi North 4.6 mph - N/A   Partly Cloudy
11:55 PM 61.7 °F 57.9 °F 87% 30.07 in 10.0 mi North 6.9 mph - N/A   Mostly Cloudy